Weather History for KLNS - April, 2012

Change the Weather History Date:

Monday, April 23, 2012

  Actual Average Record
Temperature  
Mean Temperature 42 °F -  
Max Temperature 45 °F 62 °F 92 °F (1985)
Min Temperature 39 °F 40 °F 28 °F (1986)
Degree Days  
Heating Degree Days 23    
Moisture  
Dew Point 37 °F    
Average Humidity 83    
Maximum Humidity 93    
Minimum Humidity 71    
Precipitation  
Precipitation 0.16 in - - ()
Sea Level Pressure  
Sea Level Pressure 29.32 in    
Wind  
Wind Speed 13 mph (WNW)    
Max Wind Speed 20 mph    
Max Gust Speed 25 mph    
Visibility 8 miles    
Events Rain    
Averages and records for this station are not official NWS values.
T = Trace of Precipitation, MM = Missing Value Source: NWS Daily Summary

Daily Weather History Graph

Daily Weather History Graph

Search for Another Location

Airport or City:

Trip Planner

Search our weather history database for the weather conditions in past years. The results will help you decide how hot, cold, wet, or windy it might be!

Date:

Astronomy

Apr. 23, 2012 Rise Set
Actual Time 6:14 AM EDT 7:52 PM EDT
Civil Twilight 5:46 AM EDT 8:21 PM EDT
Nautical Twilight 5:11 AM EDT 8:56 PM EDT
Astronomical Twilight 4:34 AM EDT 9:33 PM EDT
Moon 7:24 AM EDT (4/23) 10:20 PM EDT (4/23)
Length of Visible Light 14h 35m
Length of Day
13h 37m
Waxing Crescent, 5% of the Moon is Illuminated
Apr 23
Waxing Crescent
Apr 29
First Quarter
May 5
Full
May 12
Last Quarter
May 20
New

Hourly Weather History & Observations

Time (EDT) Temp. Windchill Dew Point Humidity Pressure Visibility Wind Dir Wind Speed Gust Speed Precip Events Conditions
12:18 AM 44.6 °F 36.9 °F 39.2 °F 81% 29.35 in 8.0 mi NNW 18.4 mph 25.3 mph 0.03 in Rain Light Rain
12:53 AM 43.0 °F 35.4 °F 39.0 °F 86% 29.34 in 10.0 mi NNW 16.1 mph 21.9 mph 0.05 in Rain Light Rain
1:53 AM 43.0 °F 35.7 °F 39.0 °F 86% 29.31 in 6.0 mi NNW 15.0 mph 21.9 mph 0.01 in Rain Light Rain
2:53 AM 42.1 °F 35.2 °F 37.9 °F 85% 29.27 in 6.0 mi NNW 12.7 mph 20.7 mph 0.02 in Rain Light Rain
3:38 AM 42.8 °F 36.6 °F 37.4 °F 81% 29.26 in 9.0 mi NNW 11.5 mph - 0.00 in Rain Light Rain
3:53 AM 42.1 °F 35.2 °F 37.9 °F 85% 29.26 in 9.0 mi NNW 12.7 mph 20.7 mph 0.00 in   Overcast
4:53 AM 42.1 °F 36.1 °F 37.9 °F 85% 29.25 in 10.0 mi NW 10.4 mph - N/A   Overcast
5:53 AM 41.0 °F 35.8 °F 37.9 °F 89% 29.25 in 7.0 mi WNW 8.1 mph - N/A   Overcast
6:01 AM 41.0 °F 36.4 °F 37.4 °F 87% 29.25 in 5.0 mi WNW 6.9 mph - N/A   Overcast
6:28 AM 41.0 °F 35.2 °F 37.4 °F 87% 29.25 in 2.5 mi WNW 9.2 mph - 0.00 in Rain Light Rain
6:45 AM 41.0 °F 35.2 °F 37.4 °F 87% 29.25 in 2.0 mi WNW 9.2 mph - 0.01 in Rain Light Rain
6:53 AM 41.0 °F 35.8 °F 37.9 °F 89% 29.26 in 2.5 mi West 8.1 mph - 0.01 in Rain Light Rain
6:56 AM 41.0 °F 35.2 °F 39.2 °F 93% 29.26 in 2.5 mi West 9.2 mph - 0.00 in Rain Light Rain
7:53 AM 41.0 °F 34.7 °F 37.9 °F 89% 29.27 in 2.5 mi West 10.4 mph - 0.01 in Rain Light Rain
8:28 AM 39.2 °F 31.2 °F 37.4 °F 93% 29.27 in 3.0 mi WNW 13.8 mph - 0.01 in Rain Light Rain
8:53 AM 42.1 °F 34.5 °F 39.0 °F 89% 29.26 in 5.0 mi WNW 15.0 mph - 0.01 in   Overcast
9:09 AM 42.8 °F 35.8 °F 37.4 °F 81% 29.27 in 10.0 mi WNW 13.8 mph - N/A   Overcast
9:14 AM 42.8 °F 35.8 °F 37.4 °F 81% 29.26 in 10.0 mi WNW 13.8 mph - N/A   Overcast
9:21 AM 42.8 °F 35.8 °F 37.4 °F 81% 29.27 in 10.0 mi NW 13.8 mph - N/A   Overcast
9:53 AM 42.1 °F 35.7 °F 37.0 °F 82% 29.29 in 10.0 mi West 11.5 mph - N/A   Overcast
10:00 AM 42.8 °F 37.0 °F 37.4 °F 81% 29.28 in 10.0 mi WNW 10.4 mph - N/A   Overcast
10:53 AM 42.1 °F 34.9 °F 37.0 °F 82% 29.29 in 9.0 mi WNW 13.8 mph - N/A   Overcast
11:03 AM 42.8 °F 36.2 °F 37.4 °F 81% 29.29 in 9.0 mi WNW 12.7 mph - N/A   Overcast
11:14 AM 42.8 °F 36.6 °F 37.4 °F 81% 29.29 in 6.0 mi West 11.5 mph - 0.00 in Rain Light Rain
11:27 AM 42.8 °F 37.5 °F 37.4 °F 81% 29.30 in 8.0 mi West 9.2 mph - 0.00 in Rain Light Rain
11:53 AM 42.1 °F 35.7 °F 37.9 °F 85% 29.31 in 4.0 mi West 11.5 mph - 0.01 in Rain Light Rain
12:06 PM 42.8 °F 37.0 °F 37.4 °F 81% 29.31 in 4.0 mi West 10.4 mph 19.6 mph 0.00 in Rain Light Rain
12:53 PM 43.0 °F 36.0 °F 37.0 °F 80% 29.31 in 10.0 mi WNW 13.8 mph - 0.00 in   Overcast
1:53 PM 45.0 °F 40.1 °F 37.9 °F 76% 29.33 in 10.0 mi West 9.2 mph - N/A   Overcast
2:32 PM 44.6 °F 39.7 °F 37.4 °F 76% 29.32 in 10.0 mi West 9.2 mph - N/A   Overcast
2:44 PM 44.6 °F 37.8 °F 35.6 °F 71% 29.32 in 10.0 mi West 15.0 mph - N/A   Overcast
3:32 PM 42.8 °F 37.0 °F 37.4 °F 81% 29.34 in 9.0 mi West 10.4 mph - 0.00 in Rain Light Rain
3:39 PM 42.8 °F 36.2 °F 37.4 °F 81% 29.34 in 10.0 mi West 12.7 mph - 0.00 in   Overcast
3:53 PM 44.1 °F 36.5 °F 36.0 °F 73% 29.35 in 10.0 mi West 17.3 mph 20.7 mph 0.00 in   Overcast
4:19 PM 42.8 °F 37.5 °F 37.4 °F 81% 29.34 in 10.0 mi West 9.2 mph - 0.01 in Rain Light Rain
4:53 PM 44.1 °F 37.4 °F 36.0 °F 73% 29.36 in 10.0 mi West 13.8 mph - 0.01 in   Overcast
5:49 PM 39.2 °F 32.0 °F 35.6 °F 87% 29.38 in 4.0 mi West 11.5 mph - 0.02 in Rain Light Rain
5:53 PM 39.0 °F 32.3 °F 35.1 °F 86% 29.39 in 4.0 mi West 10.4 mph - 0.03 in Rain Light Rain
6:25 PM 41.0 °F 31.9 °F 37.4 °F 87% 29.39 in 10.0 mi West 19.6 mph 24.2 mph 0.00 in Rain Light Rain
6:53 PM 41.0 °F 33.9 °F 36.0 °F 82% 29.41 in 10.0 mi West 12.7 mph - 0.00 in   Overcast
7:53 PM 39.9 °F 32.1 °F 35.1 °F 83% 29.42 in 10.0 mi West 13.8 mph 21.9 mph 0.00 in   Overcast
8:53 PM 39.0 °F 32.8 °F 35.1 °F 86% 29.44 in 10.0 mi WSW 9.2 mph - N/A   Mostly Cloudy
9:53 PM 39.9 °F 33.4 °F 34.0 °F 79% 29.45 in 10.0 mi WSW 10.4 mph - N/A   Scattered Clouds
10:53 PM 39.0 °F 32.3 °F 33.1 °F 79% 29.45 in 10.0 mi WSW 10.4 mph - N/A   Scattered Clouds
11:53 PM 39.0 °F 32.3 °F 33.1 °F 79% 29.45 in 10.0 mi WSW 10.4 mph - N/A   Scattered Clouds